Location: La Plant
(45.1447°N, 100.6515°W)
Time: 17:39:53
(UTC+00:00)

ISS - Visible Passes

Search period start: 25 November 2020 00:00
Search period end: 05 December 2020 00:00
Orbit: 418 x 421 km, 51.6° (Epoch: 25 November)

Date Brightness Start Highest point End Pass type
(mag) Time Alt. Az. Time Alt. Az. Time Alt. Az.
25 Nov -3.0 00:54:48 10° W 00:58:02 42° NNW 00:58:22 40° N visible
26 Nov -3.4 00:07:10 10° WSW 00:10:29 57° NNW 00:12:48 18° NE visible
26 Nov -0.9 01:44:50 10° WNW 01:45:45 16° NW 01:45:45 16° NW visible
27 Nov -2.4 00:57:07 10° WNW 01:00:07 29° N 01:00:09 29° N visible
28 Nov -2.6 00:09:22 10° W 00:12:29 33° NNW 00:14:31 17° NE visible
28 Nov -0.7 01:46:58 10° NW 01:47:29 13° NW 01:47:29 13° NW visible
29 Nov -2.1 00:59:20 10° WNW 01:01:50 25° NNW 01:01:50 25° NNW visible
30 Nov -2.3 00:11:38 10° WNW 00:14:33 26° N 00:16:12 18° NE visible
30 Nov -0.6 01:48:50 10° NW 01:49:10 12° NW 01:49:10 12° NW visible
01 Dec -2.2 01:01:17 10° NW 01:03:32 26° NNW 01:03:32 26° NNW visible
02 Dec -2.4 00:13:41 10° NW 00:16:37 27° N 00:17:56 20° NE visible
02 Dec -0.6 01:50:30 10° WNW 01:50:54 13° NW 01:50:54 13° NW visible
03 Dec -2.6 01:02:59 10° NW 01:05:21 35° NNW 01:05:21 35° NNW visible
04 Dec -2.9 00:15:27 10° NW 00:18:35 35° NNE 00:19:52 25° ENE visible
04 Dec -0.7 01:52:13 10° WNW 01:52:51 15° WNW 01:52:51 15° WNW visible
04 Dec -2.7 23:27:51 10° NW 23:30:52 29° N 23:33:54 10° ENE visible
